owner,sensor,date,latitude,longitude,vertical_datum,wind_speed,wind_to_direction,wind_speed_of_gust,qcFlag 
TCOON,ioos:station:TCOON:013:1,2016-10-01T00:00:00Z,27.4847,-97.3181,0.0,3.8,61.0,4.8,'11111222,11111222,11111222' 
TCOON,ioos:station:TCOON:013:1,2016-10-01T00:06:00Z,27.4847,-97.3181,0.0,3.9,60.0,4.9,'11111222,11111222,11111222' 
TCOON,ioos:station:TCOON:013:1,2016-10-01T00:12:00Z,27.4847,-97.3181,0.0,3.7,54.0,4.3,'11111222,11111222,11111222' 
TCOON,ioos:station:TCOON:013:1,2016-10-01T00:18:00Z,27.4847,-97.3181,0.0,3.4,51.0,4.6,'1111122,1111122,1111122' 
TCOON,ioos:station:TCOON:013:1,2016-10-01T00:24:00Z,27.4847,-97.3181,0.0,3.7,53.0,4.2,'11111222,11111222,11111222' 
TCOON,ioos:station:TCOON:013:1,2016-10-01T00:30:00Z,27.4847,-97.3181,0.0,3.6,56.0,4.7,'11111222,11111222,11111222' 
TCOON,ioos:station:TCOON:013:1,2016-10-01T00:36:00Z,27.4847,-97.3181,0.0,3.5,61.0,4.3,'11111222,11111222,11111222' 
TCOON,ioos:station:TCOON:013:1,2016-10-01T00:42:00Z,27.4847,-97.3181,0.0,3.2,61.0,3.9,'11111222,11111222,11111222' 
TCOON,ioos:station:TCOON:013:1,2016-10-01T00:48:00Z,27.4847,-97.3181,0.0,3.0,66.0,3.9,'11111222,11111222,11111222' 
TCOON,ioos:station:TCOON:013:1,2016-10-01T00:54:00Z,27.4847,-97.3181,0.0,2.8,58.0,3.3,'11111222,11111222,11111222' 
TCOON,ioos:station:TCOON:013:1,2016-10-01T01:00:00Z,27.4847,-97.3181,0.0,2.9,57.0,3.6,'11111222,11111222,11111222' 
TCOON,ioos:station:TCOON:013:1,2016-10-01T01:06:00Z,27.4847,-97.3181,0.0,3.0,50.0,3.9,'11111222,11111222,11111222' 
TCOON,ioos:station:TCOON:013:1,2016-10-01T01:12:00Z,27.4847,-97.3181,0.0,3.1,49.0,3.7,'11111222,11111222,11111222' 
TCOON,ioos:station:TCOON:013:1,2016-10-01T01:18:00Z,27.4847,-97.3181,0.0,2.7,53.0,3.4,'1111122,1111122,1111122' 
TCOON,ioos:station:TCOON:013:1,2016-10-01T01:24:00Z,27.4847,-97.3181,0.0,3.4,43.0,4.1,'11111222,11111222,11111222' 
TCOON,ioos:station:TCOON:013:1,2016-10-01T01:30:00Z,27.4847,-97.3181,0.0,3.5,47.0,4.1,'11111222,11111222,11111222' 
TCOON,ioos:station:TCOON:013:1,2016-10-01T01:36:00Z,27.4847,-97.3181,0.0,3.3,45.0,4.0,'11111222,11111222,11111222' 
TCOON,ioos:station:TCOON:013:1,2016-10-01T01:42:00Z,27.4847,-97.3181,0.0,3.4,47.0,3.9,'11111222,11111222,11111222' 
TCOON,ioos:station:TCOON:013:1,2016-10-01T01:48:00Z,27.4847,-97.3181,0.0,2.9,50.0,3.9,'11111222,11111222,11111222' 
TCOON,ioos:station:TCOON:013:1,2016-10-01T01:54:00Z,27.4847,-97.3181,0.0,3.1,47.0,3.9,'11111222,11111222,11111222' 
TCOON,ioos:station:TCOON:013:1,2016-10-01T02:00:00Z,27.4847,-97.3181,0.0,3.2,49.0,3.9,'11111222,11111222,11111222' 
TCOON,ioos:station:TCOON:013:1,2016-10-01T02:06:00Z,27.4847,-97.3181,0.0,3.4,53.0,4.3,'11111222,11111222,11111222' 
TCOON,ioos:station:TCOON:013:1,2016-10-01T02:12:00Z,27.4847,-97.3181,0.0,2.6,54.0,3.9,'11111222,11111222,11111222' 
TCOON,ioos:station:TCOON:013:1,2016-10-01T02:18:00Z,27.4847,-97.3181,0.0,3.2,55.0,4.1,'1111122,1111122,1111122' 
TCOON,ioos:station:TCOON:013:1,2016-10-01T02:24:00Z,27.4847,-97.3181,0.0,3.4,55.0,4.0,'11111222,11111222,11111222' 
TCOON,ioos:station:TCOON:013:1,2016-10-01T02:30:00Z,27.4847,-97.3181,0.0,2.9,53.0,4.2,'11111222,11111222,11111222' 
TCOON,ioos:station:TCOON:013:1,2016-10-01T02:36:00Z,27.4847,-97.3181,0.0,3.4,53.0,4.2,'11111222,11111222,11111222' 
TCOON,ioos:station:TCOON:013:1,2016-10-01T02:42:00Z,27.4847,-97.3181,0.0,3.4,53.0,4.0,'11111222,11111222,11111222' 
TCOON,ioos:station:TCOON:013:1,2016-10-01T02:48:00Z,27.4847,-97.3181,0.0,3.1,49.0,4.0,'11111222,11111222,11111222' 
TCOON,ioos:station:TCOON:013:1,2016-10-01T02:54:00Z,27.4847,-97.3181,0.0,3.0,47.0,3.9,'11111222,11111222,11111222' 
TCOON,ioos:station:TCOON:013:1,2016-10-01T03:00:00Z,27.4847,-97.3181,0.0,2.9,45.0,3.7,'11111222,11111222,11111222' 
TCOON,ioos:station:TCOON:013:1,2016-10-01T03:06:00Z,27.4847,-97.3181,0.0,2.9,52.0,3.3,'11111222,11111222,11111222' 
TCOON,ioos:station:TCOON:013:1,2016-10-01T03:12:00Z,27.4847,-97.3181,0.0,2.9,55.0,3.5,'11111222,11111222,11111222' 
TCOON,ioos:station:TCOON:013:1,2016-10-01T03:18:00Z,27.4847,-97.3181,0.0,3.3,49.0,3.6,'1111122,1111122,1111122' 
TCOON,ioos:station:TCOON:013:1,2016-10-01T03:24:00Z,27.4847,-97.3181,0.0,3.3,48.0,4.0,'11111222,11111222,11111222' 
TCOON,ioos:station:TCOON:013:1,2016-10-01T03:30:00Z,27.4847,-97.3181,0.0,2.9,46.0,4.1,'11111222,11111222,11111222' 
TCOON,ioos:station:TCOON:013:1,2016-10-01T03:36:00Z,27.4847,-97.3181,0.0,3.3,42.0,3.8,'11111222,11111222,11111222' 
TCOON,ioos:station:TCOON:013:1,2016-10-01T03:42:00Z,27.4847,-97.3181,0.0,3.1,49.0,3.9,'11111222,11111222,11111222' 
TCOON,ioos:station:TCOON:013:1,2016-10-01T03:48:00Z,27.4847,-97.3181,0.0,3.4,53.0,4.3,'11111222,11111222,11111222' 
TCOON,ioos:station:TCOON:013:1,2016-10-01T03:54:00Z,27.4847,-97.3181,0.0,3.7,54.0,4.3,'11111222,11111222,11111222' 
TCOON,ioos:station:TCOON:013:1,2016-10-01T04:00:00Z,27.4847,-97.3181,0.0,3.1,55.0,3.9,'11111222,11111222,11111222' 
TCOON,ioos:station:TCOON:013:1,2016-10-01T04:06:00Z,27.4847,-97.3181,0.0,3.6,54.0,4.0,'11111222,11111222,11111222' 
TCOON,ioos:station:TCOON:013:1,2016-10-01T04:12:00Z,27.4847,-97.3181,0.0,3.1,51.0,4.1,'11111222,11111222,11111222' 
TCOON,ioos:station:TCOON:013:1,2016-10-01T04:18:00Z,27.4847,-97.3181,0.0,3.3,49.0,3.8,'1111122,1111122,1111122' 
TCOON,ioos:station:TCOON:013:1,2016-10-01T04:24:00Z,27.4847,-97.3181,0.0,3.3,51.0,4.0,'11111222,11111222,11111222' 
TCOON,ioos:station:TCOON:013:1,2016-10-01T04:30:00Z,27.4847,-97.3181,0.0,2.9,50.0,3.5,'11111222,11111222,11111222' 
TCOON,ioos:station:TCOON:013:1,2016-10-01T04:36:00Z,27.4847,-97.3181,0.0,3.1,50.0,3.9,'11111222,11111222,11111222' 
TCOON,ioos:station:TCOON:013:1,2016-10-01T04:42:00Z,27.4847,-97.3181,0.0,2.4,56.0,3.4,'11111222,11111222,11111222' 
TCOON,ioos:station:TCOON:013:1,2016-10-01T04:48:00Z,27.4847,-97.3181,0.0,2.2,54.0,2.8,'11111222,11111222,11111222' 
TCOON,ioos:station:TCOON:013:1,2016-10-01T04:54:00Z,27.4847,-97.3181,0.0,2.1,55.0,2.8,'11111222,11111222,11111222' 
TCOON,ioos:station:TCOON:013:1,2016-10-01T05:00:00Z,27.4847,-97.3181,0.0,2.3,44.0,2.8,'11111222,11111222,11111222' 
TCOON,ioos:station:TCOON:013:1,2016-10-01T05:06:00Z,27.4847,-97.3181,0.0,2.5,50.0,3.3,'11111222,11111222,11111222' 
TCOON,ioos:station:TCOON:013:1,2016-10-01T05:12:00Z,27.4847,-97.3181,0.0,2.6,53.0,3.0,'11111222,11111222,11111222' 
TCOON,ioos:station:TCOON:013:1,2016-10-01T05:18:00Z,27.4847,-97.3181,0.0,2.5,46.0,3.1,'1111122,1111122,1111122' 
TCOON,ioos:station:TCOON:013:1,2016-10-01T05:24:00Z,27.4847,-97.3181,0.0,3.1,45.0,3.5,'11111222,11111222,11111222' 
TCOON,ioos:station:TCOON:013:1,2016-10-01T05:30:00Z,27.4847,-97.3181,0.0,2.6,44.0,3.4,'11111222,11111222,11111222' 
TCOON,ioos:station:TCOON:013:1,2016-10-01T05:36:00Z,27.4847,-97.3181,0.0,2.9,44.0,3.4,'11111222,11111222,11111222' 
TCOON,ioos:station:TCOON:013:1,2016-10-01T05:42:00Z,27.4847,-97.3181,0.0,2.7,49.0,3.4,'11111222,11111222,11111222' 
TCOON,ioos:station:TCOON:013:1,2016-10-01T05:48:00Z,27.4847,-97.3181,0.0,2.7,50.0,3.4,'11111222,11111222,11111222' 
TCOON,ioos:station:TCOON:013:1,2016-10-01T05:54:00Z,27.4847,-97.3181,0.0,2.7,42.0,3.2,'11111222,11111222,11111222' 
TCOON,ioos:station:TCOON:013:1,2016-10-01T06:00:00Z,27.4847,-97.3181,0.0,2.7,41.0,3.1,'11111222,11111222,11111222' 
TCOON,ioos:station:TCOON:013:1,2016-10-01T06:06:00Z,27.4847,-97.3181,0.0,2.8,43.0,3.2,'11111222,11111222,11111222' 
TCOON,ioos:station:TCOON:013:1,2016-10-01T06:12:00Z,27.4847,-97.3181,0.0,2.8,38.0,3.2,'11111222,11111222,11111222' 
TCOON,ioos:station:TCOON:013:1,2016-10-01T06:18:00Z,27.4847,-97.3181,0.0,3.0,42.0,3.4,'11111222,11111222,11111222' 
TCOON,ioos:station:TCOON:013:1,2016-10-01T06:24:00Z,27.4847,-97.3181,0.0,2.6,43.0,3.1,'11111222,11111222,11111222' 
TCOON,ioos:station:TCOON:013:1,2016-10-01T06:30:00Z,27.4847,-97.3181,0.0,2.7,45.0,3.3,'1111122,1111122,1111122' 
TCOON,ioos:station:TCOON:013:1,2016-10-01T06:36:00Z,27.4847,-97.3181,0.0,2.1,47.0,3.3,'11111222,11111222,11111222' 
TCOON,ioos:station:TCOON:013:1,2016-10-01T06:42:00Z,27.4847,-97.3181,0.0,2.2,48.0,2.7,'11111222,11111222,11111222' 
TCOON,ioos:station:TCOON:013:1,2016-10-01T06:48:00Z,27.4847,-97.3181,0.0,2.4,48.0,2.8,'11111222,11111222,11111222' 
TCOON,ioos:station:TCOON:013:1,2016-10-01T06:54:00Z,27.4847,-97.3181,0.0,2.6,62.0,2.9,'11111222,11111222,11111222' 
TCOON,ioos:station:TCOON:013:1,2016-10-01T07:00:00Z,27.4847,-97.3181,0.0,2.6,50.0,2.9,'11111222,11111222,11111222' 
TCOON,ioos:station:TCOON:013:1,2016-10-01T07:06:00Z,27.4847,-97.3181,0.0,3.0,47.0,3.4,'11111222,11111222,11111222' 
TCOON,ioos:station:TCOON:013:1,2016-10-01T07:12:00Z,27.4847,-97.3181,0.0,2.6,49.0,3.4,'11111222,11111222,11111222' 
TCOON,ioos:station:TCOON:013:1,2016-10-01T07:18:00Z,27.4847,-97.3181,0.0,2.6,51.0,3.0,'1111122,1111122,1111122' 
TCOON,ioos:station:TCOON:013:1,2016-10-01T07:24:00Z,27.4847,-97.3181,0.0,2.6,66.0,3.1,'11111222,11111222,11111222' 
TCOON,ioos:station:TCOON:013:1,2016-10-01T07:30:00Z,27.4847,-97.3181,0.0,2.1,53.0,2.8,'11111222,11111222,11111222' 
TCOON,ioos:station:TCOON:013:1,2016-10-01T07:36:00Z,27.4847,-97.3181,0.0,2.2,48.0,2.5,'11111222,11111222,11111222' 
TCOON,ioos:station:TCOON:013:1,2016-10-01T07:42:00Z,27.4847,-97.3181,0.0,2.5,38.0,2.8,'11111222,11111222,11111222' 
TCOON,ioos:station:TCOON:013:1,2016-10-01T07:48:00Z,27.4847,-97.3181,0.0,2.4,42.0,3.0,'11111222,11111222,11111222' 
TCOON,ioos:station:TCOON:013:1,2016-10-01T07:54:00Z,27.4847,-97.3181,0.0,2.3,51.0,2.7,'11111222,11111222,11111222' 
TCOON,ioos:station:TCOON:013:1,2016-10-01T08:00:00Z,27.4847,-97.3181,0.0,3.5,55.0,3.9,'11111222,11111222,11111222' 
TCOON,ioos:station:TCOON:013:1,2016-10-01T08:06:00Z,27.4847,-97.3181,0.0,2.3,45.0,3.2,'11111222,11111222,11111222' 
TCOON,ioos:station:TCOON:013:1,2016-10-01T08:12:00Z,27.4847,-97.3181,0.0,1.8,43.0,2.6,'11111222,11111222,11111222' 
TCOON,ioos:station:TCOON:013:1,2016-10-01T08:18:00Z,27.4847,-97.3181,0.0,1.7,38.0,2.1,'1111122,1111122,1111122' 
TCOON,ioos:station:TCOON:013:1,2016-10-01T08:24:00Z,27.4847,-97.3181,0.0,2.1,38.0,2.4,'11111222,11111222,11111222' 
TCOON,ioos:station:TCOON:013:1,2016-10-01T08:30:00Z,27.4847,-97.3181,0.0,2.0,46.0,2.3,'11111222,11111222,11111222' 
TCOON,ioos:station:TCOON:013:1,2016-10-01T08:36:00Z,27.4847,-97.3181,0.0,1.6,45.0,2.2,'11111222,11111222,11111222' 
TCOON,ioos:station:TCOON:013:1,2016-10-01T08:42:00Z,27.4847,-97.3181,0.0,1.6,41.0,2.0,'11111222,11111222,11111222' 
TCOON,ioos:station:TCOON:013:1,2016-10-01T08:48:00Z,27.4847,-97.3181,0.0,1.3,33.0,1.8,'11111222,11111222,11111222' 
TCOON,ioos:station:TCOON:013:1,2016-10-01T08:54:00Z,27.4847,-97.3181,0.0,0.9,30.0,1.4,'11111222,11111222,11111222' 
TCOON,ioos:station:TCOON:013:1,2016-10-01T09:00:00Z,27.4847,-97.3181,0.0,2.2,316.0,3.3,'11111222,11111222,11111222' 
TCOON,ioos:station:TCOON:013:1,2016-10-01T09:06:00Z,27.4847,-97.3181,0.0,2.1,320.0,2.8,'11111222,11111222,11111222' 
TCOON,ioos:station:TCOON:013:1,2016-10-01T09:12:00Z,27.4847,-97.3181,0.0,3.2,323.0,3.5,'11111222,11111222,11111222' 
TCOON,ioos:station:TCOON:013:1,2016-10-01T09:18:00Z,27.4847,-97.3181,0.0,2.4,316.0,3.6,'1111122,1111122,1111122' 
TCOON,ioos:station:TCOON:013:1,2016-10-01T09:24:00Z,27.4847,-97.3181,0.0,2.9,317.0,3.2,'11111222,11111222,11111222' 
TCOON,ioos:station:TCOON:013:1,2016-10-01T09:30:00Z,27.4847,-97.3181,0.0,2.8,309.0,3.6,'11111222,11111222,11111222' 
TCOON,ioos:station:TCOON:013:1,2016-10-01T09:36:00Z,27.4847,-97.3181,0.0,3.2,316.0,3.6,'11111222,11111222,11111222' 
TCOON,ioos:station:TCOON:013:1,2016-10-01T09:42:00Z,27.4847,-97.3181,0.0,3.1,324.0,3.6,'11111222,11111222,11111222' 
TCOON,ioos:station:TCOON:013:1,2016-10-01T09:48:00Z,27.4847,-97.3181,0.0,3.0,326.0,3.5,'11111222,11111222,11111222' 
TCOON,ioos:station:TCOON:013:1,2016-10-01T09:54:00Z,27.4847,-97.3181,0.0,3.2,338.0,3.5,'11111222,11111222,11111222' 
TCOON,ioos:station:TCOON:013:1,2016-10-01T10:00:00Z,27.4847,-97.3181,0.0,2.7,328.0,3.4,'11111222,11111222,11111222' 
TCOON,ioos:station:TCOON:013:1,2016-10-01T10:06:00Z,27.4847,-97.3181,0.0,2.8,324.0,3.4,'11111222,11111222,11111222' 
TCOON,ioos:station:TCOON:013:1,2016-10-01T10:12:00Z,27.4847,-97.3181,0.0,2.9,322.0,3.1,'11111222,11111222,11111222' 
TCOON,ioos:station:TCOON:013:1,2016-10-01T10:18:00Z,27.4847,-97.3181,0.0,2.8,329.0,3.1,'1111122,1111122,1111122' 
TCOON,ioos:station:TCOON:013:1,2016-10-01T10:24:00Z,27.4847,-97.3181,0.0,3.0,322.0,3.3,'11111222,11111222,11111222' 
TCOON,ioos:station:TCOON:013:1,2016-10-01T10:30:00Z,27.4847,-97.3181,0.0,3.4,322.0,3.9,'11111222,11111222,11111222' 
TCOON,ioos:station:TCOON:013:1,2016-10-01T10:36:00Z,27.4847,-97.3181,0.0,3.1,318.0,3.7,'11111222,11111222,11111222' 
TCOON,ioos:station:TCOON:013:1,2016-10-01T10:42:00Z,27.4847,-97.3181,0.0,2.8,328.0,3.3,'11111222,11111222,11111222' 
TCOON,ioos:station:TCOON:013:1,2016-10-01T10:48:00Z,27.4847,-97.3181,0.0,3.2,334.0,3.5,'11111222,11111222,11111222' 
TCOON,ioos:station:TCOON:013:1,2016-10-01T10:54:00Z,27.4847,-97.3181,0.0,2.9,326.0,3.2,'11111222,11111222,11111222' 
TCOON,ioos:station:TCOON:013:1,2016-10-01T11:00:00Z,27.4847,-97.3181,0.0,3.1,342.0,3.3,'11111222,11111222,11111222' 
TCOON,ioos:station:TCOON:013:1,2016-10-01T11:06:00Z,27.4847,-97.3181,0.0,3.0,333.0,3.4,'11111222,11111222,11111222' 
TCOON,ioos:station:TCOON:013:1,2016-10-01T11:12:00Z,27.4847,-97.3181,0.0,2.9,325.0,3.4,'11111222,11111222,11111222' 
TCOON,ioos:station:TCOON:013:1,2016-10-01T11:18:00Z,27.4847,-97.3181,0.0,3.0,332.0,3.4,'1111122,1111122,1111122' 
TCOON,ioos:station:TCOON:013:1,2016-10-01T11:24:00Z,27.4847,-97.3181,0.0,3.1,333.0,3.6,'11111222,11111222,11111222' 
TCOON,ioos:station:TCOON:013:1,2016-10-01T11:30:00Z,27.4847,-97.3181,0.0,3.5,327.0,4.0,'11111222,11111222,11111222' 
TCOON,ioos:station:TCOON:013:1,2016-10-01T11:54:00Z,27.4847,-97.3181,0.0,3.1,343.0,3.3,'11111222,11111222,11111222' 
TCOON,ioos:station:TCOON:013:1,2016-10-01T12:00:00Z,27.4847,-97.3181,0.0,3.0,346.0,3.4,'11111222,11111222,11111222' 
TCOON,ioos:station:TCOON:013:1,2016-10-01T12:06:00Z,27.4847,-97.3181,0.0,2.7,2.0,3.1,'11111222,11111222,11111222' 
TCOON,ioos:station:TCOON:013:1,2016-10-01T12:12:00Z,27.4847,-97.3181,0.0,2.7,338.0,3.0,'11111222,11111222,11111222' 
TCOON,ioos:station:TCOON:013:1,2016-10-01T12:18:00Z,27.4847,-97.3181,0.0,3.0,327.0,3.3,'1111122,1111122,1111122' 
TCOON,ioos:station:TCOON:013:1,2016-10-01T12:24:00Z,27.4847,-97.3181,0.0,3.6,343.0,4.2,'11111222,11111222,11111222' 
TCOON,ioos:station:TCOON:013:1,2016-10-01T12:30:00Z,27.4847,-97.3181,0.0,3.2,342.0,4.4,'11111222,11111222,11111222' 
TCOON,ioos:station:TCOON:013:1,2016-10-01T12:36:00Z,27.4847,-97.3181,0.0,3.5,8.0,4.2,'11111222,11111222,11111222' 
TCOON,ioos:station:TCOON:013:1,2016-10-01T12:42:00Z,27.4847,-97.3181,0.0,4.2,7.0,5.7,'11111222,11111222,11111222' 
TCOON,ioos:station:TCOON:013:1,2016-10-01T12:48:00Z,27.4847,-97.3181,0.0,4.6,14.0,5.7,'11111222,11111222,11111222' 
TCOON,ioos:station:TCOON:013:1,2016-10-01T12:54:00Z,27.4847,-97.3181,0.0,4.2,6.0,4.7,'11111222,11111222,11111222' 
TCOON,ioos:station:TCOON:013:1,2016-10-01T13:00:00Z,27.4847,-97.3181,0.0,4.6,6.0,5.3,'11111222,11111222,11111222' 
TCOON,ioos:station:TCOON:013:1,2016-10-01T13:06:00Z,27.4847,-97.3181,0.0,4.7,7.0,5.4,'11111222,11111222,11111222' 
TCOON,ioos:station:TCOON:013:1,2016-10-01T13:12:00Z,27.4847,-97.3181,0.0,4.9,17.0,5.6,'11111222,11111222,11111222' 
TCOON,ioos:station:TCOON:013:1,2016-10-01T13:18:00Z,27.4847,-97.3181,0.0,4.8,16.0,5.7,'1111122,1111122,1111122' 
TCOON,ioos:station:TCOON:013:1,2016-10-01T13:24:00Z,27.4847,-97.3181,0.0,4.2,13.0,5.7,'11111222,11111222,11111222' 
TCOON,ioos:station:TCOON:013:1,2016-10-01T13:30:00Z,27.4847,-97.3181,0.0,4.6,8.0,5.3,'11111222,11111222,11111222' 
TCOON,ioos:station:TCOON:013:1,2016-10-01T13:36:00Z,27.4847,-97.3181,0.0,5.0,6.0,5.8,'11111222,11111222,11111222' 
TCOON,ioos:station:TCOON:013:1,2016-10-01T13:42:00Z,27.4847,-97.3181,0.0,4.6,5.0,5.3,'11111222,11111222,11111222' 
TCOON,ioos:station:TCOON:013:1,2016-10-01T13:48:00Z,27.4847,-97.3181,0.0,4.9,6.0,5.4,'11111222,11111222,11111222' 
TCOON,ioos:station:TCOON:013:1,2016-10-01T13:54:00Z,27.4847,-97.3181,0.0,4.7,4.0,5.6,'11111222,11111222,11111222' 
TCOON,ioos:station:TCOON:013:1,2016-10-01T14:00:00Z,27.4847,-97.3181,0.0,4.8,5.0,5.6,'11111222,11111222,11111222' 
TCOON,ioos:station:TCOON:013:1,2016-10-01T14:06:00Z,27.4847,-97.3181,0.0,4.7,1.0,5.2,'11111222,11111222,11111222' 
TCOON,ioos:station:TCOON:013:1,2016-10-01T14:12:00Z,27.4847,-97.3181,0.0,4.6,5.0,5.1,'11111222,11111222,11111222' 
TCOON,ioos:station:TCOON:013:1,2016-10-01T14:18:00Z,27.4847,-97.3181,0.0,4.1,7.0,4.9,'1111122,1111122,1111122' 
TCOON,ioos:station:TCOON:013:1,2016-10-01T14:24:00Z,27.4847,-97.3181,0.0,3.7,3.0,4.6,'11111222,11111222,11111222' 
TCOON,ioos:station:TCOON:013:1,2016-10-01T14:30:00Z,27.4847,-97.3181,0.0,4.2,3.0,4.8,'11111222,11111222,11111222' 
TCOON,ioos:station:TCOON:013:1,2016-10-01T14:36:00Z,27.4847,-97.3181,0.0,4.3,357.0,4.8,'11111222,11111222,11111222' 
TCOON,ioos:station:TCOON:013:1,2016-10-01T14:42:00Z,27.4847,-97.3181,0.0,4.5,3.0,5.0,'11111222,11111222,11111222' 
TCOON,ioos:station:TCOON:013:1,2016-10-01T14:48:00Z,27.4847,-97.3181,0.0,4.3,7.0,4.7,'11111222,11111222,11111222' 
TCOON,ioos:station:TCOON:013:1,2016-10-01T14:54:00Z,27.4847,-97.3181,0.0,3.8,4.0,4.6,'11111222,11111222,11111222' 
TCOON,ioos:station:TCOON:013:1,2016-10-01T15:00:00Z,27.4847,-97.3181,0.0,3.8,3.0,4.5,'11111222,11111222,11111222' 
TCOON,ioos:station:TCOON:013:1,2016-10-01T15:06:00Z,27.4847,-97.3181,0.0,4.2,5.0,4.6,'11111222,11111222,11111222' 
TCOON,ioos:station:TCOON:013:1,2016-10-01T15:12:00Z,27.4847,-97.3181,0.0,4.5,8.0,5.0,'11111222,11111222,11111222' 
TCOON,ioos:station:TCOON:013:1,2016-10-01T15:18:00Z,27.4847,-97.3181,0.0,4.2,359.0,4.9,'1111122,1111122,1111122' 
TCOON,ioos:station:TCOON:013:1,2016-10-01T15:24:00Z,27.4847,-97.3181,0.0,4.3,5.0,5.1,'11111222,11111222,11111222' 
TCOON,ioos:station:TCOON:013:1,2016-10-01T15:30:00Z,27.4847,-97.3181,0.0,4.3,5.0,5.0,'11111222,11111222,11111222' 
TCOON,ioos:station:TCOON:013:1,2016-10-01T15:36:00Z,27.4847,-97.3181,0.0,4.4,5.0,5.0,'11111222,11111222,11111222' 
TCOON,ioos:station:TCOON:013:1,2016-10-01T15:42:00Z,27.4847,-97.3181,0.0,4.6,8.0,5.0,'11111222,11111222,11111222' 
TCOON,ioos:station:TCOON:013:1,2016-10-01T15:48:00Z,27.4847,-97.3181,0.0,4.8,7.0,5.2,'11111222,11111222,11111222' 
TCOON,ioos:station:TCOON:013:1,2016-10-01T15:54:00Z,27.4847,-97.3181,0.0,4.6,4.0,5.1,'11111222,11111222,11111222' 
TCOON,ioos:station:TCOON:013:1,2016-10-01T16:00:00Z,27.4847,-97.3181,0.0,3.9,7.0,5.1,'11111222,11111222,11111222' 
TCOON,ioos:station:TCOON:013:1,2016-10-01T16:06:00Z,27.4847,-97.3181,0.0,4.1,3.0,4.7,'11111222,11111222,11111222' 
TCOON,ioos:station:TCOON:013:1,2016-10-01T16:12:00Z,27.4847,-97.3181,0.0,4.3,4.0,4.8,'11111222,11111222,11111222' 
TCOON,ioos:station:TCOON:013:1,2016-10-01T16:18:00Z,27.4847,-97.3181,0.0,4.0,7.0,4.7,'1111122,1111122,1111122' 
TCOON,ioos:station:TCOON:013:1,2016-10-01T16:24:00Z,27.4847,-97.3181,0.0,3.8,4.0,4.2,'11111222,11111222,11111222' 
TCOON,ioos:station:TCOON:013:1,2016-10-01T16:30:00Z,27.4847,-97.3181,0.0,3.4,7.0,4.1,'11111222,11111222,11111222' 
TCOON,ioos:station:TCOON:013:1,2016-10-01T16:36:00Z,27.4847,-97.3181,0.0,3.5,5.0,4.3,'11111222,11111222,11111222' 
TCOON,ioos:station:TCOON:013:1,2016-10-01T16:42:00Z,27.4847,-97.3181,0.0,3.4,358.0,4.0,'11111222,11111222,11111222' 
TCOON,ioos:station:TCOON:013:1,2016-10-01T16:48:00Z,27.4847,-97.3181,0.0,3.3,1.0,3.6,'11111222,11111222,11111222' 
TCOON,ioos:station:TCOON:013:1,2016-10-01T16:54:00Z,27.4847,-97.3181,0.0,2.8,348.0,3.6,'11111222,11111222,11111222' 
TCOON,ioos:station:TCOON:013:1,2016-10-01T17:00:00Z,27.4847,-97.3181,0.0,3.0,352.0,3.4,'11111222,11111222,11111222' 
TCOON,ioos:station:TCOON:013:1,2016-10-01T17:06:00Z,27.4847,-97.3181,0.0,2.8,351.0,3.1,'11111222,11111222,11111222' 
TCOON,ioos:station:TCOON:013:1,2016-10-01T17:12:00Z,27.4847,-97.3181,0.0,2.9,349.0,3.3,'11111222,11111222,11111222' 
TCOON,ioos:station:TCOON:013:1,2016-10-01T17:18:00Z,27.4847,-97.3181,0.0,3.1,359.0,3.9,'1111122,1111122,1111122' 
TCOON,ioos:station:TCOON:013:1,2016-10-01T17:24:00Z,27.4847,-97.3181,0.0,3.6,359.0,3.9,'11111222,11111222,11111222' 
TCOON,ioos:station:TCOON:013:1,2016-10-01T17:30:00Z,27.4847,-97.3181,0.0,3.5,357.0,3.8,'11111222,11111222,11111222' 
TCOON,ioos:station:TCOON:013:1,2016-10-01T17:36:00Z,27.4847,-97.3181,0.0,3.4,357.0,3.8,'11111222,11111222,11111222' 
TCOON,ioos:station:TCOON:013:1,2016-10-01T17:42:00Z,27.4847,-97.3181,0.0,3.2,344.0,3.7,'11111222,11111222,11111222' 
TCOON,ioos:station:TCOON:013:1,2016-10-01T17:48:00Z,27.4847,-97.3181,0.0,2.4,351.0,3.4,'11111222,11111222,11111222' 
TCOON,ioos:station:TCOON:013:1,2016-10-01T17:54:00Z,27.4847,-97.3181,0.0,1.6,13.0,2.7,'11111222,11111222,11111222' 
TCOON,ioos:station:TCOON:013:1,2016-10-01T18:00:00Z,27.4847,-97.3181,0.0,2.1,1.0,2.9,'11111222,11111222,11111222' 
TCOON,ioos:station:TCOON:013:1,2016-10-01T18:06:00Z,27.4847,-97.3181,0.0,1.6,352.0,2.8,'11111222,11111222,11111222' 
TCOON,ioos:station:TCOON:013:1,2016-10-01T18:12:00Z,27.4847,-97.3181,0.0,2.4,88.0,3.4,'11111222,11111222,11111222' 
TCOON,ioos:station:TCOON:013:1,2016-10-01T18:18:00Z,27.4847,-97.3181,0.0,2.4,104.0,3.9,'1111122,1111122,1111122' 
TCOON,ioos:station:TCOON:013:1,2016-10-01T18:24:00Z,27.4847,-97.3181,0.0,3.1,79.0,4.2,'11111222,11111222,11111222' 
TCOON,ioos:station:TCOON:013:1,2016-10-01T18:30:00Z,27.4847,-97.3181,0.0,2.4,76.0,5.3,'11111222,11111222,11111222' 
TCOON,ioos:station:TCOON:013:1,2016-10-01T18:36:00Z,27.4847,-97.3181,0.0,2.9,66.0,3.6,'11111222,11111222,11111222' 
TCOON,ioos:station:TCOON:013:1,2016-10-01T18:42:00Z,27.4847,-97.3181,0.0,2.5,46.0,4.2,'11111222,11111222,11111222' 
TCOON,ioos:station:TCOON:013:1,2016-10-01T18:48:00Z,27.4847,-97.3181,0.0,2.8,59.0,4.4,'11111222,11111222,11111222' 
TCOON,ioos:station:TCOON:013:1,2016-10-01T18:54:00Z,27.4847,-97.3181,0.0,3.9,74.0,5.3,'11111222,11111222,11111222' 
TCOON,ioos:station:TCOON:013:1,2016-10-01T19:00:00Z,27.4847,-97.3181,0.0,3.8,65.0,5.0,'11111222,11111222,11111222' 
TCOON,ioos:station:TCOON:013:1,2016-10-01T19:06:00Z,27.4847,-97.3181,0.0,3.5,77.0,5.5,'11111222,11111222,11111222' 
TCOON,ioos:station:TCOON:013:1,2016-10-01T19:12:00Z,27.4847,-97.3181,0.0,5.0,75.0,6.6,'11111222,11111222,11111222' 
TCOON,ioos:station:TCOON:013:1,2016-10-01T19:18:00Z,27.4847,-97.3181,0.0,4.5,85.0,6.1,'1111122,1111122,1111122' 
TCOON,ioos:station:TCOON:013:1,2016-10-01T19:24:00Z,27.4847,-97.3181,0.0,3.8,79.0,5.9,'11111222,11111222,11111222' 
TCOON,ioos:station:TCOON:013:1,2016-10-01T19:30:00Z,27.4847,-97.3181,0.0,4.6,84.0,6.1,'11111222,11111222,11111222' 
TCOON,ioos:station:TCOON:013:1,2016-10-01T19:36:00Z,27.4847,-97.3181,0.0,3.2,83.0,6.0,'11111222,11111222,11111222' 
TCOON,ioos:station:TCOON:013:1,2016-10-01T19:42:00Z,27.4847,-97.3181,0.0,4.3,61.0,5.6,'11111222,11111222,11111222' 
TCOON,ioos:station:TCOON:013:1,2016-10-01T19:48:00Z,27.4847,-97.3181,0.0,4.1,52.0,5.9,'11111222,11111222,11111222' 
TCOON,ioos:station:TCOON:013:1,2016-10-01T19:54:00Z,27.4847,-97.3181,0.0,3.8,81.0,5.0,'11111222,11111222,11111222' 
TCOON,ioos:station:TCOON:013:1,2016-10-01T20:00:00Z,27.4847,-97.3181,0.0,5.2,78.0,6.6,'11111222,11111222,11111222' 
TCOON,ioos:station:TCOON:013:1,2016-10-01T20:06:00Z,27.4847,-97.3181,0.0,4.5,75.0,5.2,'11111222,11111222,11111222' 
TCOON,ioos:station:TCOON:013:1,2016-10-01T20:12:00Z,27.4847,-97.3181,0.0,4.4,74.0,5.2,'11111222,11111222,11111222' 
TCOON,ioos:station:TCOON:013:1,2016-10-01T20:18:00Z,27.4847,-97.3181,0.0,4.2,74.0,6.0,'1111122,1111122,1111122' 
TCOON,ioos:station:TCOON:013:1,2016-10-01T20:24:00Z,27.4847,-97.3181,0.0,4.1,66.0,6.0,'11111222,11111222,11111222' 
TCOON,ioos:station:TCOON:013:1,2016-10-01T20:30:00Z,27.4847,-97.3181,0.0,4.1,69.0,6.2,'11111222,11111222,11111222' 
TCOON,ioos:station:TCOON:013:1,2016-10-01T20:36:00Z,27.4847,-97.3181,0.0,4.1,53.0,5.8,'11111222,11111222,11111222' 
TCOON,ioos:station:TCOON:013:1,2016-10-01T20:42:00Z,27.4847,-97.3181,0.0,4.2,55.0,5.6,'11111222,11111222,11111222' 
TCOON,ioos:station:TCOON:013:1,2016-10-01T20:48:00Z,27.4847,-97.3181,0.0,3.6,64.0,5.8,'11111222,11111222,11111222' 